QPF
0.00 0.00 0.01 0.01 0.03 0.10 0.15 0.08 0.03 0.01 0.01 0.00 0.00 0.00 0.01 0.01 0.02 0.08 0.03 0.00 0.00 0.00 0.00 0.00 0.00 0.00 0.01 0.01 0.01 0.02 0.02 0.02 0.02 0.02 0.01 0.01 0.01 0.01 0.01 0.01 0.01 0.01 0.01 0.01 0.02 0.02 0.02 0.03 0.02
0.00 0.00 0.00 0.01 0.05 0.13 0.13 0.05 0.03 0.02 0.01 0.00 0.00 0.00 0.01 0.02 0.00 0.00 0.00 0.00 0.00 0.00 0.00 0.00 0.00 0.00 0.00 0.01 0.01 0.01 0.02 0.02 0.02 0.02 0.02 0.02 0.01 0.01 0.01 0.01 0.01 0.02 0.01 0.01 0.01 0.01 0.02 0.02 0.01
0.00 0.00 0.01 0.02 0.04 0.06 0.04 0.01 0.01 0.00 0.00 0.00 0.01 0.01 0.00 0.01 0.00 0.00 0.00 0.00 0.00 0.00 0.00 0.00 0.00 0.00 0.00 0.01 0.01 0.01 0.02 0.02 0.02 0.02 0.02 0.02 0.01 0.01 0.01 0.01 0.01 0.01 0.01 0.01 0.01 0.02 0.01 0.01 0.01
0.00 0.01 0.01 0.02 0.04 0.02 0.01 0.00 0.00 0.00 0.00 0.00 0.01 0.01 0.01 0.00 0.00 0.00 0.00 0.00 0.00 0.00 0.00 0.00 0.00 0.00 0.00 0.00 0.01 0.01 0.01 0.02 0.02 0.02 0.02 0.01 0.01 0.01 0.01 0.01 0.01 0.01 0.01 0.01 0.02 0.02 0.01 0.01 0.01
0.00 0.01 0.02 0.03 0.05 0.03 0.01 0.01 0.01 0.01 0.01 0.00 0.00 0.02 0.03 0.00 0.00 0.00 0.00 0.00 0.00 0.00 0.01 0.01 0.00 0.00 0.01 0.01 0.01 0.01 0.01 0.01 0.02 0.02 0.02 0.02 0.02 0.01 0.01 0.01 0.01 0.01 0.02 0.01 0.02 0.01 0.01 0.01 0.00
0.00 0.01 0.03 0.03 0.04 0.03 0.02 0.01 0.01 0.00 0.01 0.00 0.02 0.04 0.05 0.01 0.00 0.00 0.00 0.00 0.00 0.00 0.00 0.01 0.01 0.01 0.01 0.01 0.01 0.01 0.01 0.01 0.02 0.02 0.01 0.01 0.01 0.01 0.01 0.02 0.02 0.02 0.02 0.02 0.02 0.01 0.01 0.01 0.00
0.00 0.01 0.02 0.02 0.03 0.04 0.02 0.01 0.01 0.01 0.01 0.02 0.03 0.06 0.08 0.05 0.01 0.00 0.00 0.00 0.00 0.00 0.00 0.01 0.01 0.01 0.01 0.01 0.01 0.01 0.01 0.02 0.02 0.01 0.01 0.01 0.01 0.01 0.02 0.02 0.02 0.02 0.02 0.01 0.01 0.01 0.01 0.01 0.00
0.00 0.00 0.00 0.01 0.02 0.02 0.02 0.01 0.01 0.02 0.04 0.04 0.04 0.11 0.27 0.18 0.03 0.01 0.01 0.01 0.01 0.01 0.01 0.01 0.01 0.02 0.03 0.02 0.02 0.02 0.02 0.02 0.02 0.02 0.02 0.02 0.02 0.02 0.02 0.02 0.03 0.03 0.02 0.01 0.01 0.01 0.01 0.01 0.00
0.00 0.00 0.00 0.01 0.01 0.01 0.01 0.01 0.01 0.01 0.02 0.01 0.01 0.03 0.11 0.10 0.02 0.01 0.01 0.02 0.01 0.01 0.02 0.03 0.07 0.04 0.04 0.05 0.05 0.03 0.03 0.04 0.04 0.03 0.03 0.02 0.03 0.06 0.07 0.04 0.04 0.03 0.03 0.02 0.01 0.02 0.01 0.01 0.01
0.00 0.00 0.00 0.01 0.02 0.01 0.01 0.01 0.01 0.03 0.13 0.12 0.05 0.02 0.01 0.03 0.03 0.02 0.01 0.02 0.03 0.04 0.04 0.03 0.06 0.04 0.04 0.05 0.08 0.07 0.07 0.07 0.06 0.08 0.08 0.08 0.10 0.11 0.09 0.09 0.08 0.06 0.04 0.03 0.03 0.03 0.02 0.01 0.02
0.00 0.00 0.01 0.02 0.02 0.01 0.00 0.01 0.03 0.07 0.21 0.22 0.14 0.06 0.05 0.05 0.04 0.05 0.02 0.01 0.03 0.04 0.06 0.05 0.06 0.06 0.06 0.07 0.09 0.10 0.10 0.13 0.13 0.16 0.17 0.16 0.16 0.12 0.10 0.14 0.14 0.09 0.07 0.06 0.09 0.06 0.05 0.06 0.06
0.00 0.00 0.00 0.01 0.02 0.00 0.00 0.01 0.06 0.08 0.14 0.14 0.06 0.05 0.06 0.09 0.09 0.06 0.06 0.04 0.03 0.05 0.05 0.04 0.06 0.07 0.07 0.07 0.10 0.11 0.13 0.15 0.16 0.19 0.19 0.19 0.18 0.17 0.15 0.16 0.18 0.17 0.16 0.15 0.17 0.17 0.15 0.13 0.08
0.00 0.00 0.00 0.00 0.00 0.00 0.01 0.01 0.02 0.02 0.03 0.04 0.04 0.05 0.07 0.09 0.10 0.12 0.14 0.06 0.07 0.10 0.08 0.06 0.07 0.08 0.09 0.10 0.12 0.13 0.15 0.14 0.15 0.18 0.20 0.19 0.20 0.20 0.19 0.20 0.21 0.18 0.18 0.18 0.19 0.19 0.21 0.20 0.15
0.00 0.00 0.00 0.00 0.00 0.01 0.04 0.05 0.02 0.02 0.06 0.05 0.04 0.05 0.05 0.08 0.09 0.08 0.10 0.08 0.08 0.11 0.10 0.08 0.09 0.08 0.08 0.11 0.12 0.14 0.13 0.13 0.14 0.16 0.19 0.23 0.23 0.20 0.21 0.24 0.24 0.21 0.19 0.18 0.20 0.21 0.24 0.21 0.16
0.00 0.01 0.02 0.03 0.04 0.04 0.08 0.14 0.07 0.04 0.03 0.04 0.03 0.03 0.05 0.07 0.09 0.12 0.10 0.08 0.09 0.12 0.14 0.13 0.10 0.09 0.09 0.15 0.18 0.16 0.16 0.16 0.17 0.17 0.15 0.15 0.15 0.14 0.15 0.19 0.23 0.22 0.21 0.18 0.17 0.18 0.20 0.15 0.13
0.00 0.04 0.07 0.08 0.07 0.06 0.18 0.35 0.17 0.06 0.03 0.04 0.03 0.02 0.03 0.04 0.06 0.08 0.09 0.07 0.07 0.09 0.09 0.08 0.09 0.09 0.10 0.12 0.18 0.19 0.21 0.22 0.17 0.15 0.14 0.14 0.14 0.13 0.14 0.15 0.17 0.18 0.17 0.17 0.17 0.18 0.18 0.15 0.14
0.01 0.03 0.07 0.08 0.04 0.04 0.14 0.21 0.11 0.04 0.05 0.04 0.02 0.02 0.02 0.03 0.04 0.03 0.03 0.03 0.03 0.03 0.03 0.03 0.05 0.08 0.07 0.10 0.12 0.12 0.12 0.12 0.11 0.10 0.11 0.11 0.12 0.13 0.15 0.14 0.17 0.17 0.16 0.15 0.14 0.19 0.19 0.18 0.19
0.01 0.02 0.05 0.04 0.04 0.05 0.11 0.14 0.08 0.03 0.04 0.03 0.03 0.03 0.04 0.04 0.03 0.02 0.02 0.02 0.02 0.02 0.02 0.02 0.05 0.11 0.05 0.04 0.07 0.07 0.09 0.09 0.09 0.09 0.10 0.10 0.10 0.08 0.08 0.08 0.10 0.11 0.11 0.12 0.13 0.15 0.17 0.18 0.20
0.00 0.02 0.04 0.03 0.03 0.06 0.11 0.06 0.04 0.02 0.03 0.05 0.05 0.05 0.03 0.03 0.03 0.03 0.03 0.03 0.02 0.01 0.02 0.02 0.02 0.03 0.03 0.03 0.03 0.03 0.04 0.05 0.05 0.05 0.04 0.05 0.05 0.05 0.05 0.05 0.06 0.07 0.09 0.11 0.12 0.12 0.13 0.14 0.17
0.00 0.01 0.05 0.04 0.02 0.01 0.03 0.04 0.03 0.01 0.03 0.07 0.07 0.06 0.03 0.02 0.02 0.02 0.02 0.01 0.01 0.01 0.01 0.01 0.02 0.03 0.03 0.02 0.02 0.03 0.02 0.02 0.02 0.03 0.03 0.02 0.02 0.02 0.03 0.04 0.05 0.05 0.07 0.08 0.10 0.11 0.09 0.11 0.17
0.01 0.01 0.03 0.02 0.02 0.02 0.04 0.07 0.07 0.05 0.02 0.05 0.06 0.04 0.03 0.03 0.02 0.01 0.01 0.01 0.01 0.01 0.02 0.03 0.03 0.03 0.03 0.02 0.02 0.03 0.03 0.02 0.03 0.03 0.03 0.02 0.03 0.02 0.02 0.02 0.02 0.03 0.03 0.05 0.07 0.08 0.08 0.08 0.11
0.03 0.01 0.01 0.01 0.03 0.09 0.10 0.18 0.16 0.12 0.05 0.03 0.04 0.04 0.02 0.02 0.01 0.01 0.01 0.02 0.01 0.01 0.01 0.02 0.03 0.02 0.01 0.01 0.02 0.03 0.03 0.03 0.03 0.03 0.03 0.03 0.02 0.02 0.02 0.03 0.03 0.03 0.03 0.04 0.04 0.06 0.07 0.07 0.07
0.01 0.00 0.00 0.01 0.03 0.10 0.11 0.13 0.14 0.07 0.05 0.04 0.02 0.01 0.01 0.01 0.01 0.01 0.01 0.01 0.00 0.00 0.00 0.01 0.02 0.01 0.01 0.01 0.01 0.01 0.01 0.01 0.01 0.01 0.02 0.01 0.01 0.01 0.01 0.02 0.02 0.02 0.02 0.03 0.04 0.05 0.06 0.06 0.06
0.00 0.00 0.01 0.04 0.10 0.20 0.09 0.06 0.09 0.07 0.04 0.04 0.03 0.01 0.00 0.00 0.00 0.00 0.00 0.00 0.00 0.00 0.00 0.00 0.00 0.00 0.00 0.00 0.00 0.01 0.01 0.01 0.00 0.00 0.01 0.00 0.00 0.00 0.01 0.01 0.02 0.02 0.02 0.02 0.03 0.04 0.04 0.06 0.07
0.01 0.05 0.15 0.20 0.20 0.13 0.04 0.03 0.06 0.02 0.00 0.00 0.00 0.00 0.00 0.00 0.00 0.00 0.00 0.00 0.00 0.00 0.00 0.00 0.00 0.00 0.00 0.00 0.00 0.01 0.01 0.01 0.01 0.01 0.00 0.00 0.00 0.00 0.01 0.01 0.01 0.01 0.02 0.02 0.02 0.03 0.03 0.05 0.06
0.00 0.05 0.12 0.10 0.13 0.08 0.03 0.03 0.03 0.01 0.00 0.00 0.00 0.00 0.00 0.00 0.00 0.00 0.00 0.00 0.00 0.00 0.00 0.00 0.00 0.00 0.00 0.00 0.01 0.01 0.01 0.00 0.00 0.00 0.00 0.00 0.01 0.00 0.00 0.00 0.01 0.01 0.01 0.01 0.02 0.02 0.02 0.03 0.05
0.00 0.00 0.01 0.01 0.03 0.04 0.03 0.03 0.02 0.00 0.00 0.00 0.00 0.00 0.00 0.00 0.00 0.00 0.00 0.00 0.00 0.00 0.00 0.00 0.00 0.00 0.00 0.00 0.00 0.01 0.01 0.00 0.01 0.01 0.01 0.01 0.01 0.00 0.00 0.00 0.01 0.01 0.01 0.01 0.02 0.02 0.02 0.03 0.03
0.00 0.00 0.01 0.01 0.02 0.04 0.05 0.04 0.04 0.04 0.00 0.00 0.00 0.00 0.00 0.00 0.00 0.00 0.00 0.00 0.00 0.00 0.00 0.00 0.00 0.00 0.00 0.00 0.00 0.00 0.00 0.00 0.01 0.01 0.01 0.01 0.01 0.01 0.01 0.01 0.01 0.01 0.01 0.02 0.03 0.02 0.02 0.03 0.03
0.01 0.01 0.00 0.00 0.00 0.01 0.05 0.04 0.02 0.02 0.00 0.00 0.00 0.00 0.00 0.00 0.00 0.00 0.00 0.00 0.00 0.00 0.00 0.00 0.00 0.00 0.00 0.00 0.00 0.00 0.00 0.00 0.00 0.01 0.01 0.01 0.01 0.01 0.01 0.01 0.01 0.01 0.01 0.02 0.03 0.02 0.02 0.03 0.03
0.01 0.01 0.00 0.00 0.00 0.00 0.01 0.02 0.01 0.00 0.00 0.00 0.00 0.00 0.00 0.00 0.00 0.00 0.00 0.00 0.00 0.00 0.00 0.00 0.00 0.00 0.00 0.00 0.00 0.00 0.01 0.01 0.01 0.01 0.01 0.01 0.01 0.01 0.01 0.01 0.01 0.01 0.02 0.02 0.03 0.02 0.03 0.03 0.04
MSLP
1010.10 1010.88 1011.63 1012.15 1012.29 1011.96 1011.17 1010.02 1008.69 1007.38 1006.31 1005.59 1005.30 1005.39 1005.75 1006.25 1006.75 1007.15 1007.42 1007.57 1007.69 1007.86 1008.16 1008.62 1009.23 1009.94 1010.65 1011.30 1011.81 1012.19 1012.44 1012.64 1012.84 1013.09 1013.41 1013.79 1014.21 1014.59 1014.91 1015.12 1015.23 1015.26 1015.27 1015.28 1015.34 1015.44 1015.57 1015.72 1015.84
1010.30 1011.08 1011.75 1012.14 1012.11 1011.61 1010.67 1009.42 1008.05 1006.76 1005.74 1005.09 1004.85 1004.96 1005.32 1005.78 1006.23 1006.59 1006.85 1007.04 1007.25 1007.56 1008.03 1008.66 1009.42 1010.23 1011.01 1011.67 1012.18 1012.53 1012.77 1012.95 1013.15 1013.42 1013.76 1014.15 1014.56 1014.91 1015.18 1015.34 1015.40 1015.39 1015.38 1015.40 1015.48 1015.61 1015.78 1015.95 1016.07
1010.57 1011.31 1011.88 1012.11 1011.92 1011.26 1010.23 1008.95 1007.60 1006.39 1005.48 1004.93 1004.74 1004.86 1005.17 1005.54 1005.87 1006.13 1006.32 1006.51 1006.78 1007.21 1007.82 1008.62 1009.53 1010.46 1011.32 1012.02 1012.54 1012.89 1013.11 1013.29 1013.49 1013.75 1014.09 1014.47 1014.85 1015.16 1015.38 1015.48 1015.50 1015.48 1015.48 1015.53 1015.65 1015.83 1016.04 1016.23 1016.36
1010.82 1011.48 1011.91 1011.99 1011.64 1010.88 1009.80 1008.55 1007.31 1006.25 1005.49 1005.08 1004.97 1005.09 1005.32 1005.56 1005.74 1005.84 1005.92 1006.06 1006.34 1006.85 1007.58 1008.52 1009.56 1010.61 1011.54 1012.29 1012.83 1013.17 1013.39 1013.56 1013.76 1014.02 1014.35 1014.71 1015.06 1015.33 1015.50 1015.57 1015.57 1015.55 1015.56 1015.66 1015.83 1016.07 1016.33 1016.54 1016.67
1010.95 1011.50 1011.77 1011.68 1011.20 1010.37 1009.31 1008.16 1007.09 1006.25 1005.70 1005.45 1005.43 1005.56 1005.72 1005.81 1005.81 1005.74 1005.68 1005.73 1005.99 1006.53 1007.34 1008.38 1009.53 1010.66 1011.65 1012.43 1012.98 1013.32 1013.54 1013.71 1013.90 1014.16 1014.49 1014.84 1015.16 1015.40 1015.54 1015.59 1015.59 1015.58 1015.63 1015.78 1016.01 1016.30 1016.59 1016.81 1016.94
1010.89 1011.28 1011.38 1011.14 1010.55 1009.70 1008.70 1007.71 1006.86 1006.27 1005.96 1005.90 1006.01 1006.16 1006.25 1006.22 1006.05 1005.80 1005.60 1005.55 1005.77 1006.31 1007.16 1008.25 1009.45 1010.62 1011.64 1012.43 1012.97 1013.31 1013.52 1013.68 1013.88 1014.15 1014.48 1014.82 1015.14 1015.38 1015.52 1015.57 1015.57 1015.59 1015.68 1015.86 1016.14 1016.46 1016.77 1017.00 1017.11
1010.62 1010.84 1010.77 1010.40 1009.74 1008.90 1008.01 1007.20 1006.59 1006.26 1006.20 1006.33 1006.56 1006.74 1006.79 1006.66 1006.36 1005.98 1005.66 1005.52 1005.69 1006.21 1007.07 1008.17 1009.38 1010.55 1011.56 1012.32 1012.84 1013.16 1013.35 1013.52 1013.72 1014.00 1014.34 1014.71 1015.04 1015.29 1015.44 1015.51 1015.53 1015.58 1015.69 1015.90 1016.19 1016.52 1016.83 1017.05 1017.14
1010.21 1010.27 1010.06 1009.59 1008.90 1008.11 1007.34 1006.71 1006.33 1006.23 1006.38 1006.67 1007.00 1007.23 1007.26 1007.07 1006.68 1006.22 1005.83 1005.64 1005.78 1006.28 1007.12 1008.20 1009.38 1010.52 1011.48 1012.19 1012.67 1012.95 1013.12 1013.28 1013.49 1013.78 1014.15 1014.54 1014.89 1015.17 1015.35 1015.44 1015.49 1015.55 1015.68 1015.88 1016.17 1016.49 1016.78 1016.98 1017.05
1009.77 1009.72 1009.41 1008.89 1008.21 1007.49 1006.84 1006.37 1006.17 1006.24 1006.53 1006.94 1007.34 1007.59 1007.62 1007.40 1006.99 1006.50 1006.09 1005.90 1006.03 1006.52 1007.34 1008.39 1009.52 1010.59 1011.48 1012.13 1012.54 1012.78 1012.92 1013.07 1013.28 1013.58 1013.97 1014.39 1014.77 1015.08 1015.29 1015.41 1015.47 1015.54 1015.65 1015.84 1016.10 1016.38 1016.64 1016.81 1016.86
1009.45 1009.34 1009.01 1008.50 1007.87 1007.23 1006.69 1006.34 1006.25 1006.41 1006.77 1007.21 1007.62 1007.87 1007.89 1007.68 1007.29 1006.84 1006.47 1006.31 1006.47 1006.97 1007.77 1008.77 1009.83 1010.82 1011.62 1012.20 1012.54 1012.73 1012.84 1012.96 1013.16 1013.47 1013.87 1014.31 1014.72 1015.06 1015.30 1015.43 1015.50 1015.56 1015.65 1015.80 1016.01 1016.25 1016.46 1016.60 1016.64
1009.34 1009.25 1008.97 1008.53 1007.99 1007.45 1007.00 1006.73 1006.67 1006.84 1007.17 1007.57 1007.93 1008.15 1008.16 1007.97 1007.64 1007.26 1006.97 1006.88 1007.09 1007.60 1008.38 1009.33 1010.32 1011.22 1011.93 1012.43 1012.71 1012.84 1012.91 1013.01 1013.19 1013.50 1013.89 1014.33 1014.76 1015.12 1015.37 1015.52 1015.59 1015.64 1015.70 1015.80 1015.96 1016.14 1016.31 1016.42 1016.45
1009.49 1009.49 1009.32 1009.01 1008.61 1008.18 1007.80 1007.55 1007.48 1007.58 1007.81 1008.10 1008.36 1008.51 1008.51 1008.35 1008.08 1007.80 1007.61 1007.61 1007.87 1008.40 1009.15 1010.04 1010.94 1011.75 1012.38 1012.80 1013.02 1013.11 1013.14 1013.20 1013.36 1013.64 1014.01 1014.44 1014.87 1015.23 1015.50 1015.65 1015.73 1015.76 1015.79 1015.85 1015.95 1016.08 1016.21 1016.31 1016.34
1009.86 1010.00 1010.00 1009.86 1009.61 1009.30 1009.00 1008.75 1008.61 1008.59 1008.67 1008.81 1008.94 1009.01 1008.99 1008.86 1008.67 1008.49 1008.40 1008.48 1008.78 1009.30 1010.01 1010.82 1011.63 1012.35 1012.90 1013.25 1013.42 1013.46 1013.46 1013.49 1013.61 1013.84 1014.19 1014.59 1015.00 1015.36 1015.63 1015.80 1015.88 1015.90 1015.91 1015.93 1015.99 1016.08 1016.18 1016.25 1016.29
1010.34 1010.65 1010.83 1010.89 1010.82 1010.64 1010.40 1010.15 1009.93 1009.78 1009.70 1009.67 1009.67 1009.66 1009.61 1009.52 1009.41 1009.32 1009.32 1009.45 1009.76 1010.25 1010.88 1011.59 1012.30 1012.92 1013.38 1013.68 1013.80 1013.82 1013.79 1013.78 1013.86 1014.04 1014.34 1014.70 1015.08 1015.44 1015.71 1015.90 1015.99 1016.02 1016.02 1016.02 1016.05 1016.11 1016.18 1016.24 1016.28
1010.79 1011.25 1011.63 1011.88 1011.99 1011.95 1011.79 1011.54 1011.25 1010.98 1010.74 1010.57 1010.46 1010.39 1010.33 1010.28 1010.24 1010.24 1010.30 1010.46 1010.75 1011.17 1011.69 1012.28 1012.86 1013.37 1013.76 1014.00 1014.10 1014.10 1014.05 1014.01 1014.04 1014.17 1014.41 1014.72 1015.07 1015.41 1015.70 1015.90 1016.02 1016.08 1016.09 1016.08 1016.09 1016.12 1016.17 1016.22 1016.25
1011.08 1011.67 1012.22 1012.66 1012.95 1013.05 1012.97 1012.73 1012.40 1012.03 1011.68 1011.41 1011.21 1011.11 1011.07 1011.07 1011.11 1011.17 1011.28 1011.43 1011.67 1011.98 1012.38 1012.82 1013.27 1013.68 1013.99 1014.20 1014.28 1014.27 1014.20 1014.14 1014.13 1014.20 1014.37 1014.63 1014.94 1015.27 1015.57 1015.80 1015.96 1016.04 1016.07 1016.08 1016.08 1016.09 1016.11 1016.15 1016.17
1011.15 1011.85 1012.54 1013.15 1013.60 1013.84 1013.84 1013.63 1013.27 1012.84 1012.41 1012.06 1011.83 1011.72 1011.72 1011.80 1011.91 1012.04 1012.17 1012.30 1012.46 1012.67 1012.92 1013.21 1013.53 1013.83 1014.09 1014.26 1014.34 1014.34 1014.27 1014.19 1014.14 1014.16 1014.27 1014.46 1014.74 1015.04 1015.35 1015.61 1015.80 1015.93 1015.99 1016.00 1016.00 1015.99 1015.99 1016.00 1016.00
1011.01 1011.78 1012.60 1013.36 1013.96 1014.31 1014.40 1014.22 1013.85 1013.37 1012.89 1012.50 1012.25 1012.16 1012.21 1012.37 1012.56 1012.75 1012.91 1013.02 1013.11 1013.19 1013.31 1013.47 1013.66 1013.88 1014.09 1014.25 1014.35 1014.36 1014.31 1014.22 1014.14 1014.11 1014.15 1014.29 1014.51 1014.79 1015.09 1015.37 1015.60 1015.77 1015.85 1015.88 1015.87 1015.84 1015.82 1015.80 1015.78
1010.73 1011.57 1012.50 1013.40 1014.12 1014.58 1014.73 1014.58 1014.19 1013.67 1013.14 1012.71 1012.45 1012.38 1012.49 1012.72 1013.00 1013.25 1013.44 1013.55 1013.58 1013.58 1013.58 1013.63 1013.73 1013.89 1014.07 1014.24 1014.36 1014.41 1014.39 1014.30 1014.20 1014.12 1014.10 1014.17 1014.34 1014.58 1014.87 1015.16 1015.42 1015.60 1015.71 1015.75 1015.73 1015.68 1015.63 1015.58 1015.53
1010.41 1011.34 1012.39 1013.40 1014.24 1014.79 1014.98 1014.82 1014.40 1013.81 1013.21 1012.73 1012.44 1012.39 1012.54 1012.84 1013.20 1013.52 1013.76 1013.88 1013.89 1013.83 1013.76 1013.74 1013.79 1013.91 1014.09 1014.29 1014.45 1014.55 1014.56 1014.49 1014.37 1014.25 1014.18 1014.18 1014.29 1014.48 1014.74 1015.03 1015.29 1015.49 1015.61 1015.65 1015.62 1015.55 1015.47 1015.39 1015.32
1010.17 1011.20 1012.37 1013.50 1014.43 1015.04 1015.24 1015.06 1014.56 1013.88 1013.19 1012.62 1012.28 1012.21 1012.39 1012.74 1013.17 1013.57 1013.86 1014.02 1014.05 1013.98 1013.89 1013.84 1013.86 1013.99 1014.19 1014.42 1014.64 1014.79 1014.85 1014.80 1014.69 1014.54 1014.41 1014.35 1014.39 1014.52 1014.74 1014.99 1015.24 1015.44 1015.56 1015.60 1015.56 1015.47 1015.37 1015.27 1015.19
1010.06 1011.22 1012.51 1013.75 1014.76 1015.39 1015.58 1015.34 1014.74 1013.95 1013.13 1012.46 1012.04 1011.92 1012.09 1012.47 1012.95 1013.42 1013.80 1014.02 1014.09 1014.06 1013.98 1013.94 1013.97 1014.12 1014.35 1014.64 1014.91 1015.12 1015.23 1015.21 1015.10 1014.93 1014.76 1014.64 1014.61 1014.68 1014.84 1015.05 1015.27 1015.45 1015.56 1015.59 1015.55 1015.45 1015.33 1015.22 1015.13
1010.10 1011.38 1012.78 1014.10 1015.16 1015.80 1015.96 1015.63 1014.93 1014.01 1013.06 1012.27 1011.75 1011.57 1011.71 1012.10 1012.63 1013.17 1013.62 1013.91 1014.06 1014.08 1014.05 1014.04 1014.10 1014.28 1014.55 1014.88 1015.20 1015.46 1015.61 1015.63 1015.53 1015.35 1015.15 1014.98 1014.88 1014.89 1014.98 1015.14 1015.32 1015.47 1015.57 1015.59 1015.54 1015.44 1015.32 1015.20 1015.12
1010.25 1011.62 1013.10 1014.46 1015.53 1016.15 1016.25 1015.85 1015.06 1014.02 1012.97 1012.07 1011.46 1011.22 1011.33 1011.72 1012.28 1012.87 1013.39 1013.76 1013.98 1014.07 1014.10 1014.13 1014.23 1014.43 1014.73 1015.09 1015.45 1015.75 1015.94 1015.98 1015.90 1015.72 1015.49 1015.28 1015.13 1015.07 1015.10 1015.20 1015.33 1015.45 1015.52 1015.54 1015.49 1015.39 1015.27 1015.17 1015.10
1010.44 1011.85 1013.33 1014.68 1015.72 1016.29 1016.34 1015.88 1015.02 1013.93 1012.81 1011.85 1011.20 1010.91 1011.00 1011.39 1011.96 1012.60 1013.17 1013.61 1013.90 1014.05 1014.13 1014.20 1014.33 1014.55 1014.86 1015.23 1015.60 1015.92 1016.13 1016.20 1016.13 1015.95 1015.72 1015.48 1015.28 1015.17 1015.13 1015.17 1015.25 1015.34 1015.39 1015.39 1015.34 1015.25 1015.15 1015.05 1015.00
1010.61 1011.96 1013.37 1014.64 1015.60 1016.11 1016.11 1015.63 1014.76 1013.67 1012.57 1011.62 1010.97 1010.69 1010.78 1011.17 1011.75 1012.41 1013.01 1013.50 1013.84 1014.04 1014.16 1014.26 1014.40 1014.61 1014.91 1015.27 1015.63 1015.95 1016.17 1016.25 1016.19 1016.02 1015.79 1015.53 1015.30 1015.14 1015.05 1015.04 1015.07 1015.11 1015.14 1015.13 1015.07 1014.99 1014.89 1014.81 1014.76
1010.70 1011.92 1013.17 1014.29 1015.12 1015.54 1015.51 1015.04 1014.23 1013.23 1012.23 1011.37 1010.80 1010.57 1010.68 1011.08 1011.67 1012.33 1012.95 1013.46 1013.82 1014.05 1014.19 1014.30 1014.44 1014.64 1014.91 1015.24 1015.57 1015.86 1016.07 1016.15 1016.10 1015.94 1015.70 1015.44 1015.20 1015.00 1014.87 1014.81 1014.79 1014.79 1014.79 1014.76 1014.70 1014.61 1014.52 1014.43 1014.37
1010.72 1011.70 1012.72 1013.62 1014.29 1014.62 1014.57 1014.16 1013.48 1012.64 1011.81 1011.12 1010.68 1010.55 1010.72 1011.14 1011.73 1012.37 1012.98 1013.48 1013.85 1014.09 1014.24 1014.35 1014.48 1014.65 1014.89 1015.17 1015.46 1015.71 1015.89 1015.95 1015.90 1015.75 1015.52 1015.26 1015.00 1014.79 1014.62 1014.52 1014.46 1014.42 1014.38 1014.33 1014.25 1014.15 1014.04 1013.94 1013.86
1010.66 1011.36 1012.09 1012.74 1013.22 1013.45 1013.40 1013.09 1012.57 1011.95 1011.36 1010.89 1010.63 1010.63 1010.87 1011.31 1011.89 1012.50 1013.07 1013.55 1013.90 1014.14 1014.30 1014.41 1014.53 1014.69 1014.88 1015.11 1015.35 1015.55 1015.69 1015.73 1015.67 1015.51 1015.29 1015.04 1014.78 1014.55 1014.37 1014.23 1014.14 1014.06 1013.99 1013.90 1013.80 1013.68 1013.54 1013.41 1013.29
1010.58 1010.98 1011.40 1011.79 1012.07 1012.20 1012.16 1011.95 1011.63 1011.26 1010.93 1010.70 1010.64 1010.78 1011.09 1011.55 1012.10 1012.67 1013.19 1013.62 1013.96 1014.19 1014.36 1014.48 1014.60 1014.75 1014.91 1015.10 1015.28 1015.43 1015.52 1015.53 1015.45 1015.29 1015.07 1014.83 1014.58 1014.35 1014.15 1014.00 1013.87 1013.76 1013.65 1013.53 1013.40 1013.24 1013.07 1012.90 1012.73
Thickness
5841 5842 5842 5835 5817 5804 5795 5824 5846 5849 5857 5870 5872 5861 5846 5837 5825 5807 5840 5853 5845 5833 5823 5817 5813 5809 5805 5801 5798 5794 5791 5788 5785 5783 5780 5778 5775 5773 5772 5770 5768 5766 5765 5763 5762 5761 5760 5759 5758
5845 5847 5841 5829 5810 5786 5792 5827 5842 5852 5865 5874 5871 5859 5844 5835 5845 5841 5843 5847 5841 5831 5822 5816 5810 5806 5802 5798 5795 5791 5788 5785 5783 5780 5778 5775 5773 5771 5769 5768 5766 5764 5763 5762 5761 5760 5759 5757 5756
5844 5848 5833 5826 5816 5803 5808 5836 5848 5861 5874 5871 5860 5853 5840 5832 5843 5843 5844 5846 5839 5830 5820 5811 5806 5802 5799 5795 5792 5789 5786 5783 5780 5778 5775 5773 5771 5769 5767 5766 5764 5763 5761 5760 5759 5758 5757 5756 5755
5840 5839 5832 5821 5816 5831 5840 5848 5856 5856 5861 5867 5855 5837 5833 5841 5845 5845 5847 5845 5836 5827 5816 5807 5802 5798 5795 5792 5789 5786 5783 5780 5778 5775 5773 5771 5769 5767 5765 5764 5762 5761 5759 5758 5757 5756 5755 5754 5753
5840 5828 5816 5813 5818 5833 5846 5853 5857 5849 5848 5855 5846 5823 5816 5837 5846 5846 5844 5841 5833 5824 5814 5804 5799 5795 5791 5788 5785 5783 5780 5777 5775 5772 5770 5768 5766 5764 5763 5761 5760 5758 5757 5756 5755 5754 5753 5752 5752
5826 5826 5806 5807 5821 5834 5840 5848 5848 5846 5844 5847 5837 5818 5810 5830 5836 5839 5840 5836 5832 5821 5811 5801 5796 5792 5788 5785 5781 5779 5776 5774 5772 5769 5767 5765 5764 5762 5760 5759 5757 5756 5755 5754 5753 5752 5751 5751 5750
5816 5811 5807 5816 5823 5826 5836 5847 5843 5837 5834 5838 5836 5813 5807 5817 5829 5835 5834 5832 5827 5818 5808 5800 5794 5789 5785 5781 5778 5775 5772 5770 5768 5766 5764 5762 5760 5759 5757 5756 5755 5754 5753 5752 5751 5750 5749 5749 5748
5827 5812 5807 5817 5820 5821 5837 5842 5843 5834 5829 5839 5834 5807 5790 5804 5823 5828 5827 5824 5819 5813 5805 5799 5794 5788 5783 5778 5775 5772 5769 5767 5765 5763 5761 5759 5758 5756 5755 5754 5752 5751 5750 5749 5749 5748 5747 5746 5746
5829 5802 5798 5814 5817 5820 5832 5826 5830 5838 5825 5823 5824 5816 5807 5814 5819 5818 5815 5811 5807 5804 5800 5798 5791 5786 5782 5778 5773 5768 5765 5763 5761 5759 5758 5756 5756 5755 5753 5753 5751 5749 5748 5747 5746 5746 5745 5744 5744
5818 5797 5806 5823 5825 5823 5824 5819 5822 5814 5801 5797 5805 5809 5812 5811 5807 5805 5803 5798 5796 5794 5793 5792 5788 5784 5781 5777 5770 5766 5763 5760 5758 5756 5755 5754 5753 5753 5752 5751 5748 5747 5745 5745 5744 5744 5743 5742 5743
5816 5806 5814 5823 5828 5826 5819 5815 5818 5803 5782 5781 5788 5796 5800 5800 5798 5796 5795 5793 5790 5789 5787 5785 5783 5779 5776 5772 5766 5763 5760 5757 5754 5752 5750 5749 5749 5749 5747 5745 5743 5742 5742 5742 5742 5741 5741 5742 5743
5812 5814 5818 5818 5823 5820 5814 5808 5801 5791 5782 5787 5795 5799 5797 5791 5788 5787 5784 5784 5783 5780 5779 5777 5775 5772 5769 5766 5762 5758 5755 5752 5749 5747 5744 5744 5744 5743 5742 5740 5739 5739 5739 5739 5739 5739 5740 5740 5741
5809 5811 5817 5818 5816 5815 5807 5797 5791 5785 5791 5794 5794 5793 5790 5787 5783 5781 5777 5775 5775 5771 5768 5768 5766 5763 5760 5757 5754 5752 5749 5746 5744 5742 5739 5738 5738 5737 5737 5735 5734 5734 5735 5735 5735 5736 5736 5736 5737
5813 5813 5810 5808 5806 5800 5788 5784 5784 5779 5787 5784 5782 5780 5781 5777 5774 5773 5771 5768 5766 5763 5761 5760 5757 5754 5751 5748 5746 5744 5743 5740 5738 5736 5735 5734 5733 5732 5731 5731 5730 5730 5730 5731 5731 5731 5731 5732 5733
5814 5801 5794 5793 5796 5791 5780 5765 5768 5777 5780 5775 5773 5771 5770 5769 5768 5765 5764 5762 5759 5756 5755 5753 5749 5746 5743 5740 5739 5738 5736 5734 5733 5731 5729 5728 5727 5726 5726 5726 5726 5726 5726 5727 5727 5727 5727 5727 5729
5799 5782 5769 5779 5788 5782 5769 5739 5757 5773 5771 5767 5766 5765 5763 5761 5761 5761 5759 5756 5754 5751 5747 5746 5743 5738 5736 5733 5732 5731 5730 5729 5727 5726 5724 5722 5721 5720 5720 5720 5721 5721 5721 5722 5722 5722 5721 5722 5723
5781 5768 5766 5771 5783 5780 5763 5741 5753 5767 5764 5760 5760 5759 5757 5755 5755 5755 5754 5751 5747 5744 5740 5737 5734 5731 5729 5727 5726 5725 5724 5723 5722 5720 5718 5716 5715 5715 5714 5714 5716 5716 5716 5717 5717 5717 5716 5715 5717
5773 5777 5774 5768 5778 5777 5760 5747 5754 5764 5762 5758 5756 5754 5752 5749 5748 5750 5749 5746 5742 5739 5734 5730 5728 5724 5723 5722 5720 5719 5719 5718 5717 5715 5713 5711 5710 5709 5709 5710 5710 5711 5711 5711 5711 5711 5712 5712 5712
5794 5784 5775 5776 5782 5773 5760 5753 5757 5764 5761 5755 5750 5748 5747 5745 5748 5747 5744 5742 5737 5732 5728 5724 5721 5719 5717 5715 5713 5711 5711 5711 5712 5710 5708 5706 5704 5704 5703 5704 5704 5705 5704 5705 5706 5705 5705 5706 5709
5792 5779 5775 5777 5786 5778 5760 5752 5758 5761 5758 5754 5749 5745 5745 5743 5742 5741 5739 5736 5731 5727 5723 5719 5715 5713 5711 5709 5708 5708 5706 5706 5707 5705 5702 5700 5699 5698 5699 5697 5697 5698 5697 5698 5699 5698 5698 5700 5703
5784 5780 5777 5772 5778 5771 5757 5741 5744 5749 5758 5755 5752 5749 5748 5743 5739 5737 5735 5731 5728 5723 5719 5716 5710 5707 5705 5704 5704 5702 5701 5701 5699 5696 5696 5695 5693 5693 5692 5691 5690 5690 5690 5690 5691 5691 5691 5690 5694
5774 5793 5790 5782 5765 5744 5744 5718 5731 5739 5742 5747 5747 5748 5747 5745 5741 5737 5732 5727 5724 5721 5717 5712 5707 5703 5700 5699 5696 5692 5690 5688 5689 5689 5689 5689 5688 5688 5687 5685 5684 5683 5682 5683 5683 5685 5684 5684 5684
5791 5798 5787 5775 5758 5738 5735 5724 5727 5736 5734 5742 5748 5749 5749 5747 5743 5736 5731 5726 5723 5720 5715 5709 5703 5698 5695 5693 5690 5686 5684 5682 5683 5683 5683 5682 5683 5684 5683 5681 5679 5676 5675 5675 5675 5675 5676 5676 5675
5802 5792 5776 5761 5740 5715 5734 5733 5724 5736 5745 5749 5751 5752 5751 5749 5744 5737 5733 5727 5721 5718 5713 5706 5700 5694 5691 5688 5685 5681 5678 5676 5675 5675 5675 5676 5677 5677 5677 5675 5672 5670 5668 5667 5667 5667 5667 5668 5668
5795 5769 5737 5721 5710 5719 5752 5747 5736 5756 5764 5761 5756 5754 5754 5750 5744 5737 5730 5724 5719 5714 5709 5703 5697 5691 5688 5685 5681 5678 5675 5673 5672 5670 5670 5668 5668 5668 5667 5666 5663 5661 5660 5659 5660 5659 5659 5659 5660
5789 5776 5744 5725 5728 5736 5754 5747 5750 5771 5772 5770 5765 5760 5754 5749 5744 5737 5731 5724 5718 5712 5706 5701 5694 5688 5684 5681 5677 5674 5672 5670 5668 5665 5663 5662 5661 5661 5660 5658 5656 5655 5653 5653 5652 5651 5651 5652 5653
5788 5783 5787 5766 5753 5736 5744 5749 5755 5770 5766 5766 5763 5758 5752 5748 5743 5737 5731 5725 5718 5711 5705 5700 5693 5687 5682 5679 5675 5673 5670 5666 5663 5661 5659 5658 5656 5655 5654 5651 5650 5648 5647 5646 5644 5643 5643 5643 5644
5803 5796 5787 5770 5744 5730 5734 5741 5739 5751 5757 5762 5760 5755 5752 5748 5743 5737 5731 5724 5717 5712 5706 5701 5694 5687 5682 5678 5673 5672 5667 5664 5661 5657 5654 5652 5650 5649 5647 5645 5643 5642 5640 5638 5637 5635 5635 5635 5635
5787 5785 5780 5779 5774 5749 5729 5732 5763 5763 5764 5763 5761 5758 5752 5747 5743 5737 5731 5724 5718 5713 5707 5699 5693 5686 5680 5676 5671 5667 5664 5661 5658 5654 5651 5649 5646 5643 5641 5639 5637 5635 5633 5632 5629 5628 5627 5626 5626
5790 5785 5781 5762 5759 5767 5755 5739 5776 5774 5773 5768 5764 5759 5755 5749 5744 5737 5730 5723 5716 5710 5704 5698 5692 5685 5680 5675 5670 5666 5662 5658 5654 5650 5647 5644 5641 5639 5636 5634 5631 5629 5627 5625 5622 5620 5619 5618 5617